DW3400 Frejlev DK current weather conditions

sailwx.info

Wind from 222 at 3 knots gusting 10

Air temperature 6.1° C
Dewpoint 3.9° C

Last reported at 2019-Dec-09 04:05 UTC.
Time now 2019-Dec-09 04:47 UTC

Location: N 54°42' E 011°45'.
View on Google Maps.

See reports from other nearby stations

  
Tides and Currents Weather Stations Pressure Air Temp Water Temp Dewpoint Dewpoint Depression Visibility Wind Speed Wind Dir Waves Ship Positions
date/time (UTC)wind fromknots sea level pressurealtimeterstation pressurevisibilityair tempwater tempwave heightnotes
2019-Dec-09 04:05 222 3 gusting 10 6.1
2019-Dec-09 04:00 224 2 gusting 8 6.1
2019-Dec-09 03:55 229 4 gusting 13 6.1
2019-Dec-09 03:50 238 2 gusting 11 6.1
2019-Dec-09 03:45 220 2 gusting 12 6.1
2019-Dec-09 03:40 225 2 gusting 13 6.1
2019-Dec-09 03:35 219 1 gusting 7 6.1
2019-Dec-09 03:25 218 3 gusting 13 6.1
2019-Dec-09 03:15 204 5 gusting 13 6.1
2019-Dec-09 03:10 204 4 gusting 12 6.1
2019-Dec-09 02:50 218 3 gusting 6 6.1
2019-Dec-09 02:45 213 4 gusting 8 6.1
2019-Dec-09 02:30 217 3 gusting 10 6.1
2019-Dec-09 02:25 230 2 gusting 10 6.1
2019-Dec-09 02:20 211 4 gusting 10 6.1
2019-Dec-09 02:15 223 3 gusting 10 6.1
2019-Dec-09 02:10 216 4 gusting 8 6.1
2019-Dec-09 02:05 216 4 gusting 10 6.1
2019-Dec-09 02:00 206 2 gusting 13 6.1
2019-Dec-09 01:55 206 4 gusting 7 6.1
2019-Dec-09 01:45 211 2 gusting 6 6.1
2019-Dec-09 01:30 238 3 gusting 8 6.1
2019-Dec-09 01:25 198 3 gusting 11 6.1
2019-Dec-09 01:15 195 2 gusting 10 6.1
2019-Dec-09 01:05 192 2 gusting 6 6.1
2019-Dec-09 00:55 204 2 gusting 7 6.1
2019-Dec-09 00:40 201 3 gusting 10 6.1
2019-Dec-09 00:35 216 3 gusting 12 6.1
2019-Dec-09 00:30 200 3 gusting 13 6.1
2019-Dec-09 00:25 210 3 gusting 8 6.1
2019-Dec-09 00:15 217 3 gusting 8 6.1
2019-Dec-09 00:00 220 3 gusting 12 6.1
2019-Dec-08 23:55 237 4 gusting 10 6.1
2019-Dec-08 23:50 201 2 gusting 10 6.1
2019-Dec-08 23:40 212 1 gusting 7 6.1
2019-Dec-08 23:35 222 1 gusting 10 6.7
2019-Dec-08 23:30 231 2 gusting 11 6.7
2019-Dec-08 23:20 182 4 gusting 8 6.7
2019-Dec-08 23:15 218 4 gusting 10 6.7
2019-Dec-08 23:10 218 2 gusting 13 6.7
2019-Dec-08 23:05 229 2 gusting 11 6.7
2019-Dec-08 23:00 226 4 gusting 10 6.7
2019-Dec-08 22:55 203 2 gusting 6 6.7
2019-Dec-08 22:45 222 4 gusting 10 6.7
2019-Dec-08 22:40 207 4 gusting 11 6.7
2019-Dec-08 22:35 209 4 gusting 7 6.7
2019-Dec-08 22:30 228 3 gusting 10 6.7
2019-Dec-08 22:20 217 3 gusting 7 6.7
2019-Dec-08 22:10 208 3 gusting 10 6.7
2019-Dec-08 22:00 224 2 gusting 6 6.7
2019-Dec-08 21:55 223 3 gusting 7 6.7
2019-Dec-08 21:45 254 2 gusting 10 6.7
2019-Dec-08 21:25 231 2 gusting 11 6.7
2019-Dec-08 21:20 242 1 gusting 8 6.7
2019-Dec-08 21:15 217 2 gusting 6 6.7
2019-Dec-08 21:10 227 4 gusting 10 6.7
2019-Dec-08 21:05 217 2 gusting 5 6.7
2019-Dec-08 20:55 221 2 gusting 8 6.7
2019-Dec-08 20:50 248 1 gusting 8 6.7
2019-Dec-08 20:30 241 3 gusting 7 5.6
2019-Dec-08 20:25 245 4 gusting 10 5.6
2019-Dec-08 20:20 247 2 gusting 10 5.6
2019-Dec-08 20:15 259 4 gusting 13 5.6
2019-Dec-08 20:10 246 5 gusting 13 5.6
2019-Dec-08 20:05 248 3 gusting 14 5.6
2019-Dec-08 20:00 285 4 gusting 13 6.1
2019-Dec-08 19:55 267 5 gusting 12 6.1
2019-Dec-08 19:50 262 6 gusting 17 7.2
2019-Dec-08 19:45 252 3 gusting 10 7.2
2019-Dec-08 19:40 214 3 gusting 11 7.2
2019-Dec-08 19:35 231 4 gusting 13 7.2
2019-Dec-08 19:30 232 4 gusting 12 7.2
2019-Dec-08 19:25 250 4 gusting 12 7.2
2019-Dec-08 19:20 244 3 gusting 13 7.2
2019-Dec-08 19:15 244 3 gusting 13 7.2
2019-Dec-08 19:10 238 2 gusting 10 7.2
2019-Dec-08 19:05 227 3 gusting 11 7.2
2019-Dec-08 19:00 224 3 gusting 11 7.2
2019-Dec-08 18:55 240 3 gusting 13 7.2
2019-Dec-08 18:50 274 3 gusting 8 7.2
2019-Dec-08 18:40 251 3 gusting 10 7.8
2019-Dec-08 18:30 244 4 gusting 10 7.8
2019-Dec-08 18:25 247 4 gusting 13 7.8
2019-Dec-08 18:20 235 4 gusting 11 7.8
2019-Dec-08 18:15 245 2 gusting 11 7.8
2019-Dec-08 18:10 241 3 gusting 10 7.8
2019-Dec-08 18:00 236 2 gusting 8 7.8
2019-Dec-08 17:55 269 4 gusting 13 7.8
2019-Dec-08 17:40 244 4 gusting 10 7.8
2019-Dec-08 17:35 243 2 gusting 13 7.8
2019-Dec-08 17:30 254 5 gusting 10 7.8
2019-Dec-08 17:25 255 4 gusting 10 7.8
2019-Dec-08 17:20 265 4 gusting 10 7.8
2019-Dec-08 17:10 235 1 gusting 11 7.8
2019-Dec-08 17:05 249 4 gusting 12 7.8
2019-Dec-08 17:00 244 4 gusting 10 7.8
2019-Dec-08 16:55 228 5 gusting 8 7.8
2019-Dec-08 16:45 279 5 gusting 17 8.3
2019-Dec-08 16:40 235 5 gusting 11 8.3
2019-Dec-08 16:35 256 3 gusting 14 8.3
2019-Dec-08 16:30 262 5 gusting 14 8.3
2019-Dec-08 16:25 248 5 gusting 15 8.3
2019-Dec-08 16:20 258 6 gusting 17 8.3
2019-Dec-08 16:10 241 6 gusting 10 8.3
2019-Dec-08 16:05 255 6 gusting 17 8.3
2019-Dec-08 16:00 250 6 gusting 17 8.3
2019-Dec-08 15:55 251 9 gusting 18 8.3
2019-Dec-08 15:50 249 5 gusting 12 8.3
2019-Dec-08 15:40 252 6 gusting 17 8.3
2019-Dec-08 15:35 275 5 gusting 12 8.3
2019-Dec-08 15:30 271 5 gusting 14 8.3
2019-Dec-08 15:25 235 6 gusting 12 8.9
2019-Dec-08 15:20 225 2 gusting 11 8.9
2019-Dec-08 15:10 240 4 gusting 13 8.9
2019-Dec-08 15:05 245 4 gusting 12 8.9
2019-Dec-08 15:00 260 4 gusting 10 8.9
2019-Dec-08 14:45 232 5 gusting 11 8.9
2019-Dec-08 14:30 223 5 gusting 15 8.9
2019-Dec-08 14:25 274 4 gusting 12 8.9
2019-Dec-08 14:20 248 4 gusting 12 8.9
2019-Dec-08 14:15 230 5 gusting 13 8.9
2019-Dec-08 14:10 238 3 gusting 12 8.9
2019-Dec-08 14:05 225 4 gusting 10 8.9
2019-Dec-08 14:00 222 4 gusting 12 8.9
2019-Dec-08 13:55 226 3 gusting 8 8.9
2019-Dec-08 13:45 215 4 gusting 17 8.9
2019-Dec-08 13:30 211 3 gusting 10 8.9
2019-Dec-08 13:20 211 2 gusting 10 8.3
2019-Dec-08 13:15 201 5 gusting 13 8.3
2019-Dec-08 13:10 226 6 gusting 13 8.9
2019-Dec-08 13:05 206 5 gusting 15 8.3
2019-Dec-08 13:00 193 6 gusting 14 8.3
2019-Dec-08 12:55 197 5 gusting 12 8.3
2019-Dec-08 12:50 188 5 gusting 14 8.3
2019-Dec-08 12:45 203 7 gusting 17 8.3
2019-Dec-08 12:40 202 7 gusting 17 8.3
2019-Dec-08 12:35 192 6 gusting 15 8.3
2019-Dec-08 12:30 199 7 gusting 15 8.3
2019-Dec-08 12:20 196 8 gusting 20 8.3
2019-Dec-08 12:15 209 10 gusting 19 8.3
2019-Dec-08 12:10 204 10 gusting 19 8.3
2019-Dec-08 11:50 204 9 gusting 19 8.3
2019-Dec-08 11:35 207 8 gusting 17 8.3
2019-Dec-08 11:30 195 8 gusting 19 8.3
2019-Dec-08 11:20 202 8 gusting 17 8.3
2019-Dec-08 11:15 192 7 gusting 17 8.3
2019-Dec-08 11:10 193 7 gusting 17 8.3
2019-Dec-08 11:05 200 8 gusting 15 8.3
2019-Dec-08 10:45 205 11 gusting 17 8.3
2019-Dec-08 10:40 201 10 gusting 19 8.3
2019-Dec-08 10:35 201 11 gusting 19 8.3
2019-Dec-08 10:30 203 11 gusting 19 8.3
2019-Dec-08 10:25 201 13 gusting 22 8.3
2019-Dec-08 10:20 205 12 gusting 21 8.3
2019-Dec-08 10:15 200 11 gusting 20 7.8
2019-Dec-08 10:10 201 11 gusting 20 7.8
2019-Dec-08 10:05 202 12 gusting 20 7.8
2019-Dec-08 10:00 201 13 gusting 30 7.8
2019-Dec-08 09:55 202 11 gusting 20 7.8
2019-Dec-08 09:50 207 11 gusting 19 7.8
2019-Dec-08 09:45 207 9 gusting 21 7.8
2019-Dec-08 09:40 212 12 gusting 21 7.8
2019-Dec-08 09:35 205 12 gusting 24 7.8
2019-Dec-08 09:30 196 10 gusting 22 7.8
2019-Dec-08 09:20 203 11 gusting 19 7.8
2019-Dec-08 09:15 206 11 gusting 18 7.8
2019-Dec-08 09:05 202 11 gusting 19 7.8
2019-Dec-08 09:00 199 8 gusting 14 7.8
2019-Dec-08 08:55 202 6 gusting 14 7.8
2019-Dec-08 08:45 199 7 gusting 19 7.8
2019-Dec-08 08:40 196 7 gusting 17 7.8
2019-Dec-08 08:35 206 10 gusting 17 7.8
2019-Dec-08 08:25 196 9 gusting 17 8.3
2019-Dec-08 08:20 206 10 gusting 19 8.3
2019-Dec-08 08:15 197 10 gusting 18 8.3
2019-Dec-08 08:10 206 10 gusting 17 8.3
2019-Dec-08 08:05 208 8 gusting 15 8.3
2019-Dec-08 07:50 206 7 gusting 18 8.3
2019-Dec-08 07:45 201 10 gusting 18 8.3
2019-Dec-08 07:40 207 9 gusting 17 8.3
2019-Dec-08 07:35 209 9 gusting 14 8.3
2019-Dec-08 07:20 198 8 gusting 14 8.3
2019-Dec-08 07:15 205 10 gusting 17 8.3
2019-Dec-08 07:10 206 8 gusting 14 8.3
2019-Dec-08 07:05 198 9 gusting 17 8.3
2019-Dec-08 07:00 200 11 gusting 17 7.8
2019-Dec-08 06:55 197 8 gusting 17 7.8
2019-Dec-08 06:40 196 10 gusting 20 7.8
2019-Dec-08 06:35 211 8 gusting 19 7.8
2019-Dec-08 06:30 201 10 gusting 19 7.8
2019-Dec-08 06:25 203 10 gusting 17 7.8
2019-Dec-08 06:20 205 11 gusting 19 7.8
2019-Dec-08 06:15 201 11 gusting 18 7.8
2019-Dec-08 06:10 202 10 gusting 17 7.8
2019-Dec-08 06:05 206 11 gusting 19 7.8
2019-Dec-08 06:00 204 10 gusting 18 7.8
2019-Dec-08 05:50 205 9 gusting 17 7.8
2019-Dec-08 05:40 195 9 gusting 15 7.8
2019-Dec-08 05:35 203 9 gusting 17 7.8
2019-Dec-08 05:30 206 10 gusting 17 7.8
2019-Dec-08 05:25 201 8 gusting 14 7.8
2019-Dec-08 05:10 207 9 gusting 17 7.8
2019-Dec-08 05:05 205 8 gusting 14 7.8
2019-Dec-08 05:00 201 9 gusting 18 7.8
2019-Dec-08 04:55 207 7 gusting 17 7.8
2019-Dec-08 04:40 205 8 gusting 14 7.8
2019-Dec-08 04:35 205 8 gusting 13 7.8
2019-Dec-08 04:30 207 9 gusting 13 7.8
2019-Dec-08 04:25 205 6 gusting 19 7.8
2019-Dec-08 04:20 204 11 gusting 17 7.8
2019-Dec-08 04:15 206 8 gusting 17 7.8
2019-Dec-08 04:05 199 6 gusting 13 7.8
2019-Dec-08 04:00 205 5 gusting 12 7.8
2019-Dec-08 03:55 204 7 gusting 15 7.8
2019-Dec-08 03:50 208 8 gusting 14 7.8
2019-Dec-08 03:40 190 6 gusting 15 7.8
2019-Dec-08 03:35 195 6 gusting 13 7.8
2019-Dec-08 03:30 205 6 gusting 11 7.8
2019-Dec-08 03:20 205 6 gusting 13 7.8
2019-Dec-08 03:15 208 6 gusting 14 7.8
2019-Dec-08 03:10 201 5 gusting 12 7.8
2019-Dec-08 03:05 203 4 gusting 10 7.8
2019-Dec-08 03:00 202 5 gusting 10 7.8
2019-Dec-08 02:55 209 5 gusting 11 7.8
2019-Dec-08 02:50 194 4 gusting 12 7.8
2019-Dec-08 02:45 206 5 gusting 11 7.8
2019-Dec-08 02:35 203 4 gusting 13 7.8
2019-Dec-08 02:30 193 4 gusting 10 7.8
2019-Dec-08 02:25 202 4 gusting 10 7.8
2019-Dec-08 02:20 206 5 gusting 10 7.8
2019-Dec-08 02:15 203 4 gusting 6 7.8
2019-Dec-08 02:00 201 2 gusting 6 7.8
2019-Dec-08 01:55 213 4 gusting 6 7.8
2019-Dec-08 01:50 211 2 gusting 8 7.8
2019-Dec-08 01:45 212 2 gusting 7 7.8
2019-Dec-08 01:40 186 2 gusting 6 7.8
2019-Dec-08 01:35 209 2 gusting 8 7.8
2019-Dec-08 01:25 211 2 gusting 6 7.8
2019-Dec-08 01:20 232 2 gusting 6 7.2
2019-Dec-08 01:05 211 1 gusting 6 7.2
2019-Dec-08 00:55 224 4 gusting 10 7.2
2019-Dec-08 00:50 301 1 gusting 7 7.2
2019-Dec-08 00:35 241 1 gusting 7 7.2
2019-Dec-08 00:25 224 2 gusting 7 7.2
2019-Dec-08 00:20 237 1 gusting 6 7.2
2019-Dec-08 00:15 242 0 gusting 8 7.2
2019-Dec-08 00:10 193 2 gusting 7 7.2
2019-Dec-08 00:05 246 1 gusting 10 7.2
2019-Dec-08 00:00 217 1 gusting 6 7.2
2019-Dec-07 23:55 213 2 gusting 8 7.2
2019-Dec-07 23:50 271 4 gusting 10 7.2
2019-Dec-07 23:45 222 2 gusting 7 7.2
2019-Dec-07 23:40 250 1 gusting 6 7.2
2019-Dec-07 23:35 220 1 gusting 5 7.2
2019-Dec-07 23:30 287 2 gusting 8 7.2
2019-Dec-07 23:25 248 1 gusting 4 7.2
2019-Dec-07 23:10 255 0 gusting 2 7.2
2019-Dec-07 23:05 267 1 gusting 4 7.2
2019-Dec-07 22:55 219 0 gusting 5 7.2
2019-Dec-07 22:35 190 2 gusting 6 7.2
2019-Dec-07 22:30 214 0 gusting 2 7.2
2019-Dec-07 22:10 217 0 gusting 5 7.2
2019-Dec-07 22:05 217 2 gusting 5 7.2
2019-Dec-07 22:00 255 2 gusting 7 7.2
2019-Dec-07 21:55 249 1 gusting 6 7.2
2019-Dec-07 21:50 243 2 gusting 7 7.2
2019-Dec-07 21:45 260 1 gusting 6 7.2
2019-Dec-07 21:40 210 1 gusting 5 7.2
2019-Dec-07 21:35 267 0 gusting 2 7.2
2019-Dec-07 21:30 258 1 gusting 6 7.2
2019-Dec-07 21:25 250 3 gusting 10 7.2
2019-Dec-07 21:20 256 2 gusting 6 6.7
2019-Dec-07 21:15 266 2 gusting 8 6.7
2019-Dec-07 21:10 264 2 gusting 8 6.7
2019-Dec-07 21:05 269 1 gusting 6 6.7
2019-Dec-07 21:00 224 0 gusting 4 6.7
2019-Dec-07 20:55 234 0 gusting 2 6.7
2019-Dec-07 20:45 269 2 gusting 5 6.7
2019-Dec-07 20:35 239 2 gusting 5 6.7
2019-Dec-07 20:30 264 1 gusting 6 6.7
2019-Dec-07 20:25 261 2 gusting 6 6.7
2019-Dec-07 20:15 247 2 gusting 6 6.7
2019-Dec-07 20:10 252 1 gusting 7 6.7
2019-Dec-07 20:05 247 2 gusting 6 6.7
2019-Dec-07 19:40 253 2 gusting 6 7.2
2019-Dec-07 19:30 224 2 gusting 6 7.2
2019-Dec-07 19:25 261 1 gusting 7 7.2
2019-Dec-07 19:20 264 1 gusting 5 6.7
2019-Dec-07 19:15 253 2 gusting 7 6.7
2019-Dec-07 19:10 244 2 gusting 7 6.7
2019-Dec-07 19:05 247 2 gusting 7 6.7
2019-Dec-07 19:00 267 2 gusting 5 6.7
2019-Dec-07 18:55 246 1 gusting 5 6.7
2019-Dec-07 18:50 250 0 gusting 5 6.7
2019-Dec-07 18:45 275 2 gusting 7 6.7
2019-Dec-07 18:40 270 1 gusting 5 6.7
2019-Dec-07 18:30 260 3 gusting 6 6.7
2019-Dec-07 18:25 249 2 gusting 6 6.7
2019-Dec-07 18:20 255 1 gusting 8 7.2
2019-Dec-07 18:15 240 1 gusting 6 7.2
2019-Dec-07 18:10 273 2 gusting 7 7.2
2019-Dec-07 18:00 253 2 gusting 6 7.2
2019-Dec-07 17:55 280 1 gusting 8 7.2
2019-Dec-07 17:50 268 2 gusting 11 7.2
2019-Dec-07 17:40 256 1 gusting 7 7.2
2019-Dec-07 17:35 258 4 gusting 10 7.2
2019-Dec-07 17:30 274 2 gusting 13 7.2
2019-Dec-07 17:25 239 3 gusting 7 7.2
2019-Dec-07 17:20 262 3 gusting 10 7.2
2019-Dec-07 17:15 263 2 gusting 7 7.2
2019-Dec-07 17:10 264 4 gusting 8 7.2
2019-Dec-07 16:55 273 3 gusting 8 7.2
2019-Dec-07 16:45 257 4 gusting 8 7.2
2019-Dec-07 16:35 249 2 gusting 10 7.2
2019-Dec-07 16:30 245 0 gusting 8 7.2
2019-Dec-07 16:25 281 2 gusting 6 7.2
2019-Dec-07 16:20 272 3 gusting 6 7.2
2019-Dec-07 16:15 245 2 gusting 6 7.2
2019-Dec-07 16:10 255 2 gusting 6 7.2
2019-Dec-07 16:05 232 1 gusting 6 7.2
2019-Dec-07 16:00 251 0 gusting 6 7.2
2019-Dec-07 15:55 271 2 gusting 5 7.2
2019-Dec-07 15:50 267 2 gusting 8 6.7
2019-Dec-07 15:45 264 2 gusting 6 7.2
2019-Dec-07 15:40 276 2 gusting 8 6.7
2019-Dec-07 15:35 267 1 gusting 6 7.2
2019-Dec-07 15:30 269 2 gusting 8 7.2
2019-Dec-07 15:10 259 2 gusting 6 7.2
2019-Dec-07 15:05 266 2 gusting 8 7.2
2019-Dec-07 15:00 273 4 gusting 8 7.2
2019-Dec-07 14:55 246 2 gusting 6 7.2
2019-Dec-07 14:50 253 2 gusting 13 7.2
2019-Dec-07 14:40 269 1 gusting 7 7.2
2019-Dec-07 14:35 296 2 gusting 6 7.8
2019-Dec-07 14:30 251 1 gusting 10 7.8
2019-Dec-07 14:05 291 5 gusting 11 7.8
2019-Dec-07 14:00 257 2 gusting 10 7.8
2019-Dec-07 13:55 277 3 gusting 8 7.8
2019-Dec-07 13:50 279 3 gusting 13 7.8
2019-Dec-07 13:40 274 2 gusting 10 8.3
2019-Dec-07 13:30 303 1 gusting 10 8.3
2019-Dec-07 13:25 279 2 gusting 8 8.3
2019-Dec-07 13:15 295 4 gusting 11 8.3
2019-Dec-07 12:55 287 1 gusting 6 8.3
2019-Dec-07 12:50 271 2 gusting 6 8.9
2019-Dec-07 12:45 272 2 gusting 6 8.9
2019-Dec-07 12:40 268 4 gusting 12 8.9
2019-Dec-07 12:35 265 2 gusting 11 8.9
2019-Dec-07 12:30 274 2 gusting 8 8.9
2019-Dec-07 12:25 297 4 gusting 8 8.9
2019-Dec-07 12:20 284 3 gusting 10 8.9
2019-Dec-07 12:15 253 1 gusting 7 8.9
2019-Dec-07 12:10 272 2 gusting 13 8.9
2019-Dec-07 12:00 273 3 gusting 8 8.9
2019-Dec-07 11:55 284 5 gusting 13 8.9
2019-Dec-07 11:50 272 4 gusting 12 8.9
2019-Dec-07 11:45 271 2 gusting 11 8.9
2019-Dec-07 11:40 294 4 gusting 10 8.9
2019-Dec-07 11:35 257 4 gusting 12 8.9
2019-Dec-07 11:25 289 4 gusting 11 8.9
2019-Dec-07 11:20 269 4 gusting 12 8.9
2019-Dec-07 11:15 293 4 gusting 10 8.9
2019-Dec-07 11:10 267 4 gusting 10 8.9
2019-Dec-07 11:05 287 4 gusting 10 8.9
2019-Dec-07 11:00 283 4 gusting 10 8.3
2019-Dec-07 10:55 277 2 gusting 6 8.3
2019-Dec-07 10:45 276 2 gusting 7 8.3
2019-Dec-07 10:40 277 2 gusting 7 8.3
2019-Dec-07 10:35 274 2 gusting 6 8.3
2019-Dec-07 10:30 278 2 gusting 7 8.3
2019-Dec-07 10:25 300 3 gusting 8 8.3
2019-Dec-07 10:20 268 4 gusting 10 8.3
2019-Dec-07 10:05 281 2 gusting 7 8.3
2019-Dec-07 10:00 286 4 gusting 7 8.3
2019-Dec-07 09:50 293 5 gusting 12 8.3
2019-Dec-07 09:40 276 4 gusting 10 8.3
2019-Dec-07 09:35 285 4 gusting 7 8.3
2019-Dec-07 09:30 283 4 gusting 8 8.3
2019-Dec-07 09:25 279 4 gusting 11 8.3
2019-Dec-07 09:20 285 4 gusting 10 8.3
2019-Dec-07 09:10 267 2 gusting 6 8.3
2019-Dec-07 09:05 308 4 gusting 10 8.3
2019-Dec-07 08:55 310 3 gusting 11 8.3
2019-Dec-07 08:40 317 1 gusting 5 8.3
2019-Dec-07 08:30 282 1 gusting 4 8.3
2019-Dec-07 08:15 300 4 gusting 8 8.3
2019-Dec-07 08:10 300 3 gusting 11 8.3
2019-Dec-07 08:05 297 4 gusting 10 8.3
2019-Dec-07 07:40 291 4 gusting 18 8.3
2019-Dec-07 07:30 302 3 gusting 8 8.3
2019-Dec-07 07:25 274 4 gusting 10 8.3
2019-Dec-07 07:20 277 4 gusting 8 8.3
2019-Dec-07 07:15 288 4 gusting 10 8.3
2019-Dec-07 07:10 290 4 gusting 14 8.3
2019-Dec-07 06:55 276 3 gusting 10 8.3
2019-Dec-07 06:50 280 3 gusting 10 8.3
2019-Dec-07 06:45 276 3 gusting 7 8.3
2019-Dec-07 06:40 283 4 gusting 10 8.3
2019-Dec-07 06:35 272 3 gusting 12 8.3
2019-Dec-07 06:30 271 2 gusting 10 8.3
2019-Dec-07 06:20 265 4 gusting 12 8.3
2019-Dec-07 06:10 283 4 gusting 10 8.3
2019-Dec-07 06:05 260 4 gusting 12 8.3
2019-Dec-07 05:50 267 4 gusting 13 8.3
2019-Dec-07 05:45 244 5 gusting 14 8.3
2019-Dec-07 05:40 246 6 gusting 13 8.3
2019-Dec-07 05:35 262 6 gusting 14 8.3
2019-Dec-07 05:30 252 6 gusting 14 8.3
2019-Dec-07 05:15 297 1 gusting 13 7.8
2019-Dec-07 05:10 242 3 gusting 17 7.8
2019-Dec-07 05:05 244 4 gusting 11 7.8
2019-Dec-07 04:55 249 2 gusting 12 7.8
2019-Dec-07 04:50 243 4 gusting 10 7.8
2019-Dec-07 04:45 212 2 gusting 8 7.8
2019-Dec-07 04:40 239 2 gusting 10 7.8
2019-Dec-07 04:35 255 2 gusting 11 7.8
2019-Dec-07 04:30 252 3 gusting 10 7.8
2019-Dec-07 04:25 230 2 gusting 8 7.8
2019-Dec-07 04:20 236 3 gusting 10 7.8
2019-Dec-07 04:10 253 3 gusting 12 7.8
2019-Dec-07 04:00 228 3 gusting 10 7.8